Back to catalog

CZ-6A DEB

AlivePO
NORAD 63392·DEBRIS·🇨🇳 China

Launched Aug 6, 2024 from Taiyuan Satellite Launch Center

Loading…

Next Passes (next 24 hours)

TLE

FreshSource: Space-Track

Epoch: Sep 14, 2026, 11:48 UTC

1 63392U 24140ADP 26257.49173012  .00000249  00000-0  10743-3 0  9996
2 63392  89.0261 267.2434 0035024 251.9480 107.7894 14.21232727106635

Track CZ-6A DEB in real time with AllMySat

Download on the App Store